Flag for Russia Weather past 2 weeks in Krasnodar, Russia

Now
90 °F

Sunny.


Feels Like: 88 °F
Forecast: 69 / 92 °F
Wind: 8 mph from East

Location: Krasnodar Airport

Current Time: Jul 23, 2014 at 7:35:21 PM

Latest Report: Jul 23, 2014 at 6:30 PM


Visibility: 10 mi

Pressure: 29.77 "Hg

Humidity: 31%

Dew point: 55 °F

Location of KrasnodarLocation

Historic Weather in Krasnodar — Graph

°F

Krasnodar temperature yesterday

Maximum temperature yesterday: 88 °F (at 2:30 PM)
Minimum temperature yesterday: 68 °F (at 4:00 AM)
Average temperature yesterday: 76 °F

Past Weeks' High & Low Weather Summary

 TemperatureHumidityPressure
High93 °F (Jul 12, 3:00 PM)100% (Jul 9, 12:30 AM)29.86 "Hg (Jul 9, 12:30 AM)
Low63 °F (Jul 10, 6:00 AM)29% (Jul 22, 1:30 PM)29.65 "Hg (Jul 12, 10:00 PM)
Average77 °F68%29.76 "Hg
* Reported Jul 8 6:00 PM — Jul 23 6:30 PM, Krasnodar, Weather by CustomWeather, © 2014

Note: Actual official high and low records may vary slightly from our data, if they occured in-between our weather recording intervals... More about our weather records

Advertising

Krasnodar weather history for previous 24 hours

 ConditionsComfort  
Time TempWeatherWind HumidityBarometerVisibility
6:30 PM
Jul 23
90 °FSunny.8 mph31%29.77 "Hg10 mi
6:00 PM90 °FPassing clouds.8 mph31%29.77 "HgN/A
5:30 PM90 °FPassing clouds.8 mph31%29.77 "HgN/A
5:00 PM90 °FSunny.10 mph31%29.80 "Hg10 mi
2:00 PM90 °FSunny.13 mph31%29.83 "Hg10 mi
1:30 PM88 °FSunny.13 mph35%29.83 "Hg10 mi
1:00 PM86 °FSunny.13 mph38%29.83 "Hg10 mi
9:30 AM77 °FPassing clouds.6 mph65%29.86 "HgN/A
9:00 AM75 °FScattered clouds.3 mph83%29.86 "HgN/A
8:30 AM75 °FScattered clouds.3 mph83%29.86 "Hg4 mi
8:00 AM72 °FScattered clouds.3 mph88%29.86 "Hg4 mi
7:30 AM68 °FFog.1 mph100%29.86 "Hg2 mi
6:30 AM64 °FFog.1 mph100%29.83 "Hg2 mi
6:00 AM66 °FFog.1 mph94%29.83 "Hg1 mi
5:30 AM66 °FFog.No wind94%29.83 "Hg3 mi
5:00 AM66 °FFog.1 mph94%29.86 "Hg2 mi
4:30 AM66 °FClear.1 mph94%29.86 "Hg4 mi
4:00 AM68 °FClear.1 mph94%29.86 "Hg4 mi
3:00 AM68 °FClear.1 mph94%29.86 "Hg5 mi
8:30 PM
Jul 22
77 °FSunny.3 mph69%29.83 "Hg10 mi
8:00 PM77 °FPassing clouds.3 mph74%29.83 "HgN/A
7:30 PM77 °FSunny.1 mph74%29.83 "Hg10 mi
7:00 PM77 °FBroken clouds.6 mph74%29.83 "HgN/A
Weather by CustomWeather, © 2014

See weather overviewHow to use our weather pages